Time,TemperatureF,DewpointF,PressureIn,WindDirection,WindDirectionDegrees,WindSpeedMPH,WindSpeedGustMPH,Humidity,HourlyPrecipIn,Conditions,Clouds,dailyrainin,SoftwareType,DateUTC
2013-12-19 00:00:00,43.7,40.4,30.30,East,83,0.0,0.0,88,0.00,,---,0.00,VWS V14.01,2013-12-19 05:00:00,
2013-12-19 00:01:00,43.7,40.4,30.30,East,84,0.0,0.0,88,0.00,,---,0.00,VWS V14.01,2013-12-19 05:01:00,
2013-12-19 00:06:00,43.7,40.1,30.30,East,84,0.0,0.0,87,0.00,,---,0.00,VWS V14.01,2013-12-19 05:06:00,
2013-12-19 00:10:00,43.6,40.0,30.30,East,83,0.0,0.0,87,0.00,,---,0.00,VWS V14.01,2013-12-19 05:10:00,
2013-12-19 00:11:00,43.6,40.0,30.30,East,83,0.0,0.0,87,0.00,,---,0.00,VWS V14.01,2013-12-19 05:11:00,
2013-12-19 00:16:00,43.3,39.7,30.30,East,84,0.0,0.0,87,0.00,,---,0.00,VWS V14.01,2013-12-19 05:16:00,
2013-12-19 00:20:00,43.0,39.4,30.29,East,84,0.0,0.0,87,0.00,,---,0.00,VWS V14.01,2013-12-19 05:20:00,
2013-12-19 00:21:00,42.8,39.2,30.30,East,84,0.0,0.0,87,0.00,,---,0.00,VWS V14.01,2013-12-19 05:21:00,
2013-12-19 00:26:00,42.5,38.9,30.30,East,83,0.0,0.0,87,0.00,,---,0.00,VWS V14.01,2013-12-19 05:26:00,
2013-12-19 00:30:00,42.4,39.1,30.30,East,83,0.0,0.0,88,0.00,,---,0.00,VWS V14.01,2013-12-19 05:30:00,
2013-12-19 00:32:00,42.5,39.2,30.30,East,84,0.0,0.0,88,0.00,,---,0.00,VWS V14.01,2013-12-19 05:32:00,
2013-12-19 00:37:00,42.4,39.1,30.30,East,83,0.0,0.0,88,0.00,,---,0.00,VWS V14.01,2013-12-19 05:37:00,
2013-12-19 00:40:00,42.2,38.9,30.30,East,83,0.0,0.0,88,0.00,,---,0.00,VWS V14.01,2013-12-19 05:40:00,
2013-12-19 00:42:00,42.1,38.8,30.29,East,83,0.0,0.0,88,0.00,,---,0.00,VWS V14.01,2013-12-19 05:42:00,
2013-12-19 00:47:00,41.5,38.2,30.29,East,83,0.0,0.0,88,0.00,,---,0.00,VWS V14.01,2013-12-19 05:47:00,
2013-12-19 00:50:00,41.2,37.9,30.29,East,84,0.0,0.0,88,0.00,,---,0.00,VWS V14.01,2013-12-19 05:50:00,
2013-12-19 00:52:00,41.0,37.7,30.29,East,83,0.0,0.0,88,0.00,,---,0.00,VWS V14.01,2013-12-19 05:52:00,
2013-12-19 00:57:00,40.5,37.2,30.28,East,84,0.0,0.0,88,0.00,,---,0.00,VWS V14.01,2013-12-19 05:57:00,
2013-12-19 01:00:00,40.4,37.1,30.29,East,83,0.0,0.0,88,0.00,,---,0.00,VWS V14.01,2013-12-19 06:00:00,
2013-12-19 01:02:00,40.4,37.1,30.28,East,83,0.0,0.0,88,0.00,,---,0.00,VWS V14.01,2013-12-19 06:02:00,
2013-12-19 01:07:00,40.4,37.4,30.28,East,83,0.0,0.0,89,0.00,,---,0.00,VWS V14.01,2013-12-19 06:07:00,
2013-12-19 01:10:00,40.3,37.3,30.28,East,83,0.0,0.0,89,0.00,,---,0.00,VWS V14.01,2013-12-19 06:10:00,
2013-12-19 01:12:00,40.2,37.2,30.28,East,83,0.0,0.0,89,0.00,,---,0.00,VWS V14.01,2013-12-19 06:12:00,
2013-12-19 01:17:00,40.4,37.4,30.28,East,84,0.0,0.0,89,0.00,,---,0.00,VWS V14.01,2013-12-19 06:17:00,
2013-12-19 01:20:00,40.3,37.3,30.28,East,83,0.0,0.0,89,0.00,,---,0.00,VWS V14.01,2013-12-19 06:20:00,
2013-12-19 01:22:00,40.3,37.3,30.28,East,84,0.0,0.0,89,0.00,,---,0.00,VWS V14.01,2013-12-19 06:22:00,
2013-12-19 01:27:00,40.2,37.2,30.28,East,83,0.0,0.0,89,0.00,,---,0.00,VWS V14.01,2013-12-19 06:27:00,
2013-12-19 01:30:00,40.2,37.2,30.28,East,83,0.0,0.0,89,0.00,,---,0.00,VWS V14.01,2013-12-19 06:30:00,
2013-12-19 01:32:00,40.1,37.1,30.28,East,83,0.0,0.0,89,0.00,,---,0.00,VWS V14.01,2013-12-19 06:32:00,
2013-12-19 01:37:00,39.9,36.9,30.28,East,84,0.0,0.0,89,0.00,,---,0.00,VWS V14.01,2013-12-19 06:37:00,
2013-12-19 01:40:00,39.7,36.7,30.28,East,84,0.0,0.0,89,0.00,,---,0.00,VWS V14.01,2013-12-19 06:40:00,
2013-12-19 01:42:00,39.5,36.5,30.28,East,83,0.0,0.0,89,0.00,,---,0.00,VWS V14.01,2013-12-19 06:42:00,
2013-12-19 01:47:00,39.5,36.5,30.28,East,83,0.0,0.0,89,0.00,,---,0.00,VWS V14.01,2013-12-19 06:47:00,
2013-12-19 01:50:00,39.5,36.5,30.28,East,83,0.0,0.0,89,0.00,,---,0.00,VWS V14.01,2013-12-19 06:50:00,
2013-12-19 01:52:00,39.5,36.5,30.28,East,84,0.0,0.0,89,0.00,,---,0.00,VWS V14.01,2013-12-19 06:52:00,
2013-12-19 01:57:00,39.9,36.9,30.28,East,83,0.0,0.0,89,0.00,,---,0.00,VWS V14.01,2013-12-19 06:57:00,
2013-12-19 02:00:00,39.9,36.9,30.28,East,83,0.0,0.0,89,0.00,,---,0.00,VWS V14.01,2013-12-19 07:00:00,
2013-12-19 02:02:00,40.0,37.0,30.27,East,84,0.0,0.0,89,0.00,,---,0.00,VWS V14.01,2013-12-19 07:02:00,
2013-12-19 02:07:00,40.2,37.5,30.27,East,83,0.0,0.0,90,0.00,,---,0.00,VWS V14.01,2013-12-19 07:07:00,
2013-12-19 02:10:00,40.2,37.5,30.28,East,83,0.0,0.0,90,0.00,,---,0.00,VWS V14.01,2013-12-19 07:10:00,
2013-12-19 02:12:00,40.1,37.1,30.28,East,83,0.0,0.0,89,0.00,,---,0.00,VWS V14.01,2013-12-19 07:12:00,
2013-12-19 02:17:00,39.9,36.9,30.28,East,83,0.0,0.0,89,0.00,,---,0.00,VWS V14.01,2013-12-19 07:17:00,
2013-12-19 02:20:00,39.8,37.1,30.28,East,84,0.0,0.0,90,0.00,,---,0.00,VWS V14.01,2013-12-19 07:20:00,
2013-12-19 02:22:00,39.8,37.1,30.28,East,83,0.0,0.0,90,0.00,,---,0.00,VWS V14.01,2013-12-19 07:22:00,
2013-12-19 02:27:00,40.2,37.5,30.28,East,83,0.0,0.0,90,0.00,,---,0.00,VWS V14.01,2013-12-19 07:27:00,
2013-12-19 02:30:00,40.3,37.6,30.27,East,83,0.0,0.0,90,0.00,,---,0.00,VWS V14.01,2013-12-19 07:30:00,
2013-12-19 02:32:00,40.2,37.5,30.27,East,84,0.0,0.0,90,0.00,,---,0.00,VWS V14.01,2013-12-19 07:32:00,
2013-12-19 02:37:00,40.1,37.4,30.27,East,83,0.0,0.0,90,0.00,,---,0.00,VWS V14.01,2013-12-19 07:37:00,
2013-12-19 02:40:00,40.1,37.4,30.27,East,83,0.0,0.0,90,0.00,,---,0.00,VWS V14.01,2013-12-19 07:40:00,
2013-12-19 02:42:00,40.0,37.3,30.27,East,84,0.0,0.0,90,0.00,,---,0.00,VWS V14.01,2013-12-19 07:42:00,
2013-12-19 02:47:00,39.8,37.1,30.27,East,84,0.0,0.0,90,0.00,,---,0.00,VWS V14.01,2013-12-19 07:47:00,
2013-12-19 02:50:00,39.6,36.9,30.27,East,84,0.0,0.0,90,0.00,,---,0.00,VWS V14.01,2013-12-19 07:50:00,
2013-12-19 02:52:00,39.6,36.9,30.27,East,83,0.0,0.0,90,0.00,,---,0.00,VWS V14.01,2013-12-19 07:52:00,
2013-12-19 02:57:00,39.6,36.9,30.27,East,83,0.0,0.0,90,0.00,,---,0.00,VWS V14.01,2013-12-19 07:57:00,
2013-12-19 03:00:00,39.5,36.8,30.27,East,84,0.0,0.0,90,0.00,,---,0.00,VWS V14.01,2013-12-19 08:00:00,
2013-12-19 03:02:00,39.8,37.1,30.27,East,83,0.0,0.0,90,0.00,,---,0.00,VWS V14.01,2013-12-19 08:02:00,
2013-12-19 03:07:00,40.5,37.8,30.27,East,83,0.0,0.0,90,0.00,,---,0.00,VWS V14.01,2013-12-19 08:07:00,
2013-12-19 03:10:00,40.7,38.0,30.27,East,83,0.0,0.0,90,0.00,,---,0.00,VWS V14.01,2013-12-19 08:10:00,
2013-12-19 03:12:00,40.9,38.2,30.27,East,83,0.0,0.0,90,0.00,,---,0.00,VWS V14.01,2013-12-19 08:12:00,
2013-12-19 03:17:00,41.1,38.4,30.27,East,83,0.0,0.0,90,0.00,,---,0.00,VWS V14.01,2013-12-19 08:17:00,
2013-12-19 03:20:00,41.2,38.5,30.27,East,83,0.0,0.0,90,0.00,,---,0.00,VWS V14.01,2013-12-19 08:20:00,
2013-12-19 03:23:00,41.3,38.6,30.27,East,83,0.0,0.0,90,0.00,,---,0.00,VWS V14.01,2013-12-19 08:23:00,
2013-12-19 03:28:00,41.5,38.8,30.27,East,83,0.0,0.0,90,0.00,,---,0.00,VWS V14.01,2013-12-19 08:28:00,
2013-12-19 03:30:00,41.5,38.8,30.27,East,83,0.0,0.0,90,0.00,,---,0.00,VWS V14.01,2013-12-19 08:30:00,
2013-12-19 03:33:00,41.4,38.7,30.27,East,83,0.0,0.0,90,0.00,,---,0.00,VWS V14.01,2013-12-19 08:33:00,
2013-12-19 03:38:00,41.1,38.4,30.27,East,83,0.0,0.0,90,0.00,,---,0.00,VWS V14.01,2013-12-19 08:38:00,
2013-12-19 03:40:00,41.0,38.3,30.27,East,84,0.0,0.0,90,0.00,,---,0.00,VWS V14.01,2013-12-19 08:40:00,
2013-12-19 03:43:00,40.8,38.1,30.27,East,83,0.0,0.0,90,0.00,,---,0.00,VWS V14.01,2013-12-19 08:43:00,
2013-12-19 03:48:00,40.9,38.2,30.27,East,84,0.0,0.0,90,0.00,,---,0.00,VWS V14.01,2013-12-19 08:48:00,
2013-12-19 03:50:00,40.9,38.2,30.27,East,83,0.0,0.0,90,0.00,,---,0.00,VWS V14.01,2013-12-19 08:50:00,
2013-12-19 03:53:00,40.8,38.1,30.27,East,84,0.0,0.0,90,0.00,,---,0.00,VWS V14.01,2013-12-19 08:53:00,
2013-12-19 03:58:00,40.5,37.8,30.27,East,83,0.0,0.0,90,0.00,,---,0.00,VWS V14.01,2013-12-19 08:58:00,
2013-12-19 04:00:00,40.4,37.7,30.27,East,84,0.0,0.0,90,0.00,,---,0.00,VWS V14.01,2013-12-19 09:00:00,
2013-12-19 04:03:00,40.2,37.5,30.27,East,84,0.0,0.0,90,0.00,,---,0.00,VWS V14.01,2013-12-19 09:03:00,
2013-12-19 04:08:00,40.0,37.3,30.27,East,83,0.0,0.0,90,0.00,,---,0.00,VWS V14.01,2013-12-19 09:08:00,
2013-12-19 04:10:00,39.9,37.2,30.27,East,83,0.0,0.0,90,0.00,,---,0.00,VWS V14.01,2013-12-19 09:10:00,
2013-12-19 04:13:00,39.7,37.0,30.27,East,84,0.0,0.0,90,0.00,,---,0.00,VWS V14.01,2013-12-19 09:13:00,
2013-12-19 04:18:00,39.5,36.8,30.27,East,83,0.0,0.0,90,0.00,,---,0.00,VWS V14.01,2013-12-19 09:18:00,
2013-12-19 04:20:00,39.3,36.6,30.27,East,84,0.0,0.0,90,0.00,,---,0.00,VWS V14.01,2013-12-19 09:20:00,
2013-12-19 04:23:00,39.3,36.6,30.27,East,83,0.0,0.0,90,0.00,,---,0.00,VWS V14.01,2013-12-19 09:23:00,
2013-12-19 04:28:00,39.9,37.5,30.27,East,83,0.0,0.0,91,0.00,,---,0.00,VWS V14.01,2013-12-19 09:28:00,
2013-12-19 04:30:00,40.1,37.7,30.27,East,84,0.0,0.0,91,0.00,,---,0.00,VWS V14.01,2013-12-19 09:30:00,
2013-12-19 04:33:00,40.6,38.2,30.27,East,84,0.0,0.0,91,0.00,,---,0.00,VWS V14.01,2013-12-19 09:33:00,
2013-12-19 04:38:00,40.8,38.4,30.27,East,84,0.0,0.0,91,0.00,,---,0.00,VWS V14.01,2013-12-19 09:38:00,
2013-12-19 04:40:00,40.8,38.4,30.26,East,83,0.0,0.0,91,0.00,,---,0.00,VWS V14.01,2013-12-19 09:40:00,
2013-12-19 04:43:00,40.7,38.3,30.26,East,83,0.0,0.0,91,0.00,,---,0.00,VWS V14.01,2013-12-19 09:43:00,
2013-12-19 04:48:00,41.0,38.6,30.26,East,83,0.0,0.0,91,0.00,,---,0.00,VWS V14.01,2013-12-19 09:48:00,
2013-12-19 04:50:00,41.0,38.6,30.26,East,84,0.0,0.0,91,0.00,,---,0.00,VWS V14.01,2013-12-19 09:50:00,
2013-12-19 04:53:00,41.1,38.7,30.26,East,84,0.0,0.0,91,0.00,,---,0.00,VWS V14.01,2013-12-19 09:53:00,
2013-12-19 04:58:00,41.2,38.8,30.26,East,84,0.0,0.0,91,0.00,,---,0.00,VWS V14.01,2013-12-19 09:58:00,
2013-12-19 05:00:00,41.1,38.7,30.26,East,83,0.0,0.0,91,0.00,,---,0.00,VWS V14.01,2013-12-19 10:00:00,
2013-12-19 05:03:00,40.9,38.2,30.26,East,83,0.0,0.0,90,0.00,,---,0.00,VWS V14.01,2013-12-19 10:03:00,
2013-12-19 05:08:00,40.8,38.1,30.26,East,83,0.0,0.0,90,0.00,,---,0.00,VWS V14.01,2013-12-19 10:08:00,
2013-12-19 05:10:00,40.8,38.1,30.26,East,84,0.0,0.0,90,0.00,,---,0.00,VWS V14.01,2013-12-19 10:10:00,
2013-12-19 05:13:00,40.6,37.9,30.26,East,83,0.0,0.0,90,0.00,,---,0.00,VWS V14.01,2013-12-19 10:13:00,
2013-12-19 05:18:00,40.4,37.7,30.26,East,84,0.0,0.0,90,0.00,,---,0.00,VWS V14.01,2013-12-19 10:18:00,
2013-12-19 05:20:00,40.5,37.8,30.26,East,83,0.0,0.0,90,0.00,,---,0.00,VWS V14.01,2013-12-19 10:20:00,
2013-12-19 05:23:00,40.7,38.3,30.26,East,83,0.0,0.0,91,0.00,,---,0.00,VWS V14.01,2013-12-19 10:23:00,
2013-12-19 05:28:00,41.2,38.8,30.26,East,83,0.0,0.0,91,0.00,,---,0.00,VWS V14.01,2013-12-19 10:28:00,
2013-12-19 05:30:00,41.3,38.9,30.26,East,83,0.0,0.0,91,0.00,,---,0.00,VWS V14.01,2013-12-19 10:30:00,
2013-12-19 05:33:00,41.4,39.0,30.27,East,83,0.0,0.0,91,0.00,,---,0.00,VWS V14.01,2013-12-19 10:33:00,
2013-12-19 05:38:00,41.2,38.8,30.27,East,83,0.0,0.0,91,0.00,,---,0.00,VWS V14.01,2013-12-19 10:38:00,
2013-12-19 05:40:00,41.1,38.7,30.27,East,83,0.0,0.0,91,0.00,,---,0.00,VWS V14.01,2013-12-19 10:40:00,
2013-12-19 05:43:00,40.8,38.4,30.27,East,83,0.0,0.0,91,0.00,,---,0.00,VWS V14.01,2013-12-19 10:43:00,
2013-12-19 05:48:00,40.5,37.8,30.27,East,83,0.0,0.0,90,0.00,,---,0.00,VWS V14.01,2013-12-19 10:48:00,
2013-12-19 05:50:00,40.5,37.8,30.27,East,84,0.0,0.0,90,0.00,,---,0.00,VWS V14.01,2013-12-19 10:50:00,
2013-12-19 05:53:00,40.3,37.6,30.27,East,83,0.0,0.0,90,0.00,,---,0.00,VWS V14.01,2013-12-19 10:53:00,
2013-12-19 05:58:00,40.0,37.3,30.27,East,84,0.0,0.0,90,0.00,,---,0.00,VWS V14.01,2013-12-19 10:58:00,
2013-12-19 06:00:00,40.0,37.3,30.27,East,84,0.0,0.0,90,0.00,,---,0.00,VWS V14.01,2013-12-19 11:00:00,
2013-12-19 06:03:00,39.8,37.1,30.27,East,83,0.0,0.0,90,0.00,,---,0.00,VWS V14.01,2013-12-19 11:03:00,
2013-12-19 06:08:00,39.5,36.8,30.27,East,84,0.0,0.0,90,0.00,,---,0.00,VWS V14.01,2013-12-19 11:08:00,
2013-12-19 06:10:00,39.5,36.8,30.27,East,83,0.0,0.0,90,0.00,,---,0.00,VWS V14.01,2013-12-19 11:10:00,
2013-12-19 06:13:00,39.2,36.5,30.27,East,84,0.0,0.0,90,0.00,,---,0.00,VWS V14.01,2013-12-19 11:13:00,
2013-12-19 06:18:00,39.0,36.3,30.27,East,83,0.0,0.0,90,0.00,,---,0.00,VWS V14.01,2013-12-19 11:18:00,
2013-12-19 06:20:00,38.9,36.2,30.27,East,83,0.0,0.0,90,0.00,,---,0.00,VWS V14.01,2013-12-19 11:20:00,
2013-12-19 06:23:00,38.7,36.0,30.27,East,83,0.0,0.0,90,0.00,,---,0.00,VWS V14.01,2013-12-19 11:23:00,
2013-12-19 06:28:00,38.4,35.7,30.27,East,83,0.0,0.0,90,0.00,,---,0.00,VWS V14.01,2013-12-19 11:28:00,
2013-12-19 06:30:00,38.3,35.6,30.27,East,84,0.0,0.0,90,0.00,,---,0.00,VWS V14.01,2013-12-19 11:30:00,
2013-12-19 06:33:00,38.4,36.0,30.27,East,84,0.0,0.0,91,0.00,,---,0.00,VWS V14.01,2013-12-19 11:33:00,
2013-12-19 06:39:00,38.4,36.0,30.27,East,84,0.0,0.0,91,0.00,,---,0.00,VWS V14.01,2013-12-19 11:39:00,
2013-12-19 06:40:00,38.4,36.0,30.27,East,83,0.0,0.0,91,0.00,,---,0.00,VWS V14.01,2013-12-19 11:40:00,
2013-12-19 06:44:00,38.3,35.9,30.28,East,83,0.0,0.0,91,0.00,,---,0.00,VWS V14.01,2013-12-19 11:44:00,
2013-12-19 06:49:00,38.2,35.8,30.27,East,83,0.0,0.0,91,0.00,,---,0.00,VWS V14.01,2013-12-19 11:49:00,
2013-12-19 06:50:00,38.2,35.8,30.27,East,83,0.0,0.0,91,0.00,,---,0.00,VWS V14.01,2013-12-19 11:50:00,
2013-12-19 06:54:00,38.2,35.8,30.28,East,84,0.0,0.0,91,0.00,,---,0.00,VWS V14.01,2013-12-19 11:54:00,
2013-12-19 06:59:00,38.1,35.7,30.28,East,83,0.0,0.0,91,0.00,,---,0.00,VWS V14.01,2013-12-19 11:59:00,
2013-12-19 07:00:00,38.1,35.7,30.28,East,83,0.0,0.0,91,0.00,,---,0.00,VWS V14.01,2013-12-19 12:00:00,
2013-12-19 07:04:00,38.0,35.6,30.27,East,83,0.0,0.0,91,0.00,,---,0.00,VWS V14.01,2013-12-19 12:04:00,
2013-12-19 07:09:00,37.9,35.5,30.27,East,84,0.0,0.0,91,0.00,,---,0.00,VWS V14.01,2013-12-19 12:09:00,
2013-12-19 07:10:00,37.9,35.5,30.27,East,83,0.0,0.0,91,0.00,,---,0.00,VWS V14.01,2013-12-19 12:10:00,
2013-12-19 07:14:00,37.9,35.5,30.28,East,83,0.0,0.0,91,0.00,,---,0.00,VWS V14.01,2013-12-19 12:14:00,
2013-12-19 07:19:00,38.4,36.0,30.28,East,83,0.0,0.0,91,0.00,,---,0.00,VWS V14.01,2013-12-19 12:19:00,
2013-12-19 07:20:00,38.5,36.1,30.28,East,84,0.0,0.0,91,0.00,,---,0.00,VWS V14.01,2013-12-19 12:20:00,
2013-12-19 07:24:00,38.9,36.5,30.28,East,84,0.0,0.0,91,0.00,,---,0.00,VWS V14.01,2013-12-19 12:24:00,
2013-12-19 07:29:00,39.1,36.7,30.28,East,83,0.0,0.0,91,0.00,,---,0.00,VWS V14.01,2013-12-19 12:29:00,
2013-12-19 07:30:00,39.0,36.6,30.28,East,83,0.0,0.0,91,0.00,,---,0.00,VWS V14.01,2013-12-19 12:30:00,
2013-12-19 07:34:00,39.0,36.6,30.28,East,83,0.0,0.0,91,0.00,,---,0.00,VWS V14.01,2013-12-19 12:34:00,
2013-12-19 07:39:00,39.1,36.7,30.28,East,83,0.0,0.0,91,0.00,,---,0.00,VWS V14.01,2013-12-19 12:39:00,
2013-12-19 07:40:00,39.1,36.7,30.28,East,83,0.0,0.0,91,0.00,,---,0.00,VWS V14.01,2013-12-19 12:40:00,
2013-12-19 07:44:00,39.5,37.1,30.28,East,83,0.0,0.0,91,0.00,,---,0.00,VWS V14.01,2013-12-19 12:44:00,
2013-12-19 07:49:00,39.7,37.3,30.29,East,84,0.0,0.0,91,0.00,,---,0.00,VWS V14.01,2013-12-19 12:49:00,
2013-12-19 07:50:00,39.8,37.4,30.29,East,83,0.0,0.0,91,0.00,,---,0.00,VWS V14.01,2013-12-19 12:50:00,
2013-12-19 07:54:00,40.2,38.1,30.29,East,83,0.0,0.0,92,0.00,,---,0.00,VWS V14.01,2013-12-19 12:54:00,
2013-12-19 07:59:00,40.6,38.5,30.29,East,84,0.0,0.0,92,0.00,,---,0.00,VWS V14.01,2013-12-19 12:59:00,
2013-12-19 08:00:00,40.7,38.6,30.29,East,84,0.0,0.0,92,0.00,,---,0.00,VWS V14.01,2013-12-19 13:00:00,
2013-12-19 08:04:00,41.3,39.2,30.29,East,84,0.0,0.0,92,0.00,,---,0.00,VWS V14.01,2013-12-19 13:04:00,
2013-12-19 08:09:00,41.7,39.5,30.29,East,83,0.0,0.0,92,0.00,,---,0.00,VWS V14.01,2013-12-19 13:09:00,
2013-12-19 08:10:00,41.7,39.5,30.29,East,84,0.0,0.0,92,0.00,,---,0.00,VWS V14.01,2013-12-19 13:10:00,
2013-12-19 08:14:00,42.2,40.0,30.29,East,83,0.0,0.0,92,0.00,,---,0.00,VWS V14.01,2013-12-19 13:14:00,
2013-12-19 08:19:00,43.2,41.0,30.29,East,83,0.0,0.0,92,0.00,,---,0.00,VWS V14.01,2013-12-19 13:19:00,
2013-12-19 08:20:00,43.2,41.0,30.29,East,84,0.0,0.0,92,0.00,,---,0.00,VWS V14.01,2013-12-19 13:20:00,
2013-12-19 08:24:00,44.2,42.0,30.29,East,84,0.0,0.0,92,0.00,,---,0.00,VWS V14.01,2013-12-19 13:24:00,
2013-12-19 08:29:00,45.1,42.9,30.29,ENE,76,0.0,1.0,92,0.00,,---,0.00,VWS V14.01,2013-12-19 13:29:00,
2013-12-19 08:30:00,45.1,42.9,30.29,ENE,77,0.0,1.0,92,0.00,,---,0.00,VWS V14.01,2013-12-19 13:30:00,
2013-12-19 08:34:00,46.1,43.6,30.29,ENE,77,1.0,1.0,91,0.00,,---,0.00,VWS V14.01,2013-12-19 13:34:00,
2013-12-19 08:39:00,47.2,44.7,30.29,ENE,76,0.0,1.0,91,0.00,,---,0.00,VWS V14.01,2013-12-19 13:39:00,
2013-12-19 08:40:00,47.2,44.7,30.29,East,83,0.0,1.0,91,0.00,,---,0.00,VWS V14.01,2013-12-19 13:40:00,
2013-12-19 08:44:00,48.2,45.7,30.29,East,94,0.0,0.0,91,0.00,,---,0.00,VWS V14.01,2013-12-19 13:44:00,
2013-12-19 08:49:00,49.0,46.2,30.29,East,82,0.0,0.0,90,0.00,,---,0.00,VWS V14.01,2013-12-19 13:49:00,
2013-12-19 08:50:00,49.1,46.3,30.29,East,82,0.0,0.0,90,0.00,,---,0.00,VWS V14.01,2013-12-19 13:50:00,
2013-12-19 08:54:00,50.1,47.0,30.30,East,79,0.0,0.0,89,0.00,,---,0.00,VWS V14.01,2013-12-19 13:54:00,
2013-12-19 08:59:00,51.0,47.3,30.30,WNW,296,0.0,0.0,87,0.00,,---,0.00,VWS V14.01,2013-12-19 13:59:00,
2013-12-19 09:00:00,51.0,47.3,30.30,WNW,297,0.0,0.0,87,0.00,,---,0.00,VWS V14.01,2013-12-19 14:00:00,
2013-12-19 09:04:00,52.1,48.0,30.30,ENE,75,0.0,0.0,86,0.00,,---,0.00,VWS V14.01,2013-12-19 14:04:00,
2013-12-19 09:09:00,52.8,48.1,30.30,ENE,72,0.0,2.0,84,0.00,,---,0.00,VWS V14.01,2013-12-19 14:09:00,
2013-12-19 09:10:00,52.8,48.1,30.30,ENE,72,0.0,2.0,84,0.00,,---,0.00,VWS V14.01,2013-12-19 14:10:00,
2013-12-19 09:14:00,53.4,48.7,30.30,East,85,2.0,2.0,84,0.00,,---,0.00,VWS V14.01,2013-12-19 14:14:00,
2013-12-19 09:19:00,53.7,48.7,30.30,East,91,0.0,3.0,83,0.00,,---,0.00,VWS V14.01,2013-12-19 14:19:00,
2013-12-19 09:20:00,53.7,48.7,30.30,East,91,0.0,3.0,83,0.00,,---,0.00,VWS V14.01,2013-12-19 14:20:00,
2013-12-19 09:24:00,54.6,49.2,30.29,East,89,0.0,3.0,82,0.00,,---,0.00,VWS V14.01,2013-12-19 14:24:00,
2013-12-19 09:30:00,55.5,50.1,30.30,East,82,2.0,3.0,82,0.00,,---,0.00,VWS V14.01,2013-12-19 14:30:00,
2013-12-19 09:34:00,56.0,50.3,30.29,NE,47,2.0,3.0,81,0.00,,---,0.00,VWS V14.01,2013-12-19 14:34:00,
2013-12-19 09:40:00,56.8,51.0,30.29,ENE,77,1.0,3.0,81,0.00,,---,0.00,VWS V14.01,2013-12-19 14:40:00,
2013-12-19 09:45:00,57.6,51.5,30.29,East,91,2.0,2.0,80,0.00,,---,0.00,VWS V14.01,2013-12-19 14:45:00,
2013-12-19 09:50:00,58.2,52.1,30.29,East,79,2.0,2.0,80,0.00,,---,0.00,VWS V14.01,2013-12-19 14:50:00,
2013-12-19 09:55:00,59.2,52.7,30.29,East,79,2.0,2.0,79,0.00,,---,0.00,VWS V14.01,2013-12-19 14:55:00,
2013-12-19 10:00:00,59.7,52.8,30.29,ENE,73,2.0,2.0,78,0.00,,---,0.00,VWS V14.01,2013-12-19 15:00:00,
2013-12-19 10:05:00,60.5,54.0,30.30,ENE,74,2.0,3.0,79,0.00,,---,0.00,VWS V14.01,2013-12-19 15:05:00,
2013-12-19 10:10:00,61.4,54.5,30.30,East,89,0.0,1.0,78,0.00,,---,0.00,VWS V14.01,2013-12-19 15:10:00,
2013-12-19 10:15:00,61.9,54.3,30.30,ENE,65,2.0,3.0,76,0.00,,---,0.00,VWS V14.01,2013-12-19 15:15:00,
2013-12-19 10:20:00,62.1,54.5,30.30,East,82,2.0,2.0,76,0.00,,---,0.00,VWS V14.01,2013-12-19 15:20:00,
2013-12-19 10:25:00,62.7,55.0,30.30,East,95,1.0,3.0,76,0.00,,---,0.00,VWS V14.01,2013-12-19 15:25:00,
2013-12-19 10:30:00,63.2,55.5,30.29,ESE,104,0.0,1.0,76,0.00,,---,0.00,VWS V14.01,2013-12-19 15:30:00,
2013-12-19 10:35:00,63.8,56.1,30.29,East,86,0.0,2.0,76,0.00,,---,0.00,VWS V14.01,2013-12-19 15:35:00,
2013-12-19 10:40:00,64.5,56.0,30.30,ENE,78,1.0,2.0,74,0.00,,---,0.00,VWS V14.01,2013-12-19 15:40:00,
2013-12-19 10:45:00,64.8,56.3,30.29,East,80,0.0,2.0,74,0.00,,---,0.00,VWS V14.01,2013-12-19 15:45:00,
2013-12-19 10:50:00,65.7,57.2,30.29,East,79,1.0,1.0,74,0.00,,---,0.00,VWS V14.01,2013-12-19 15:50:00,
2013-12-19 10:55:00,66.4,57.9,30.29,ENE,76,2.0,2.0,74,0.00,,---,0.00,VWS V14.01,2013-12-19 15:55:00,
2013-12-19 11:00:00,66.8,57.9,30.29,ENE,77,0.0,2.0,73,0.00,,---,0.00,VWS V14.01,2013-12-19 16:00:00,
2013-12-19 11:05:00,67.1,57.8,30.29,NE,52,4.0,4.0,72,0.00,,---,0.00,VWS V14.01,2013-12-19 16:05:00,
2013-12-19 11:10:00,67.1,57.8,30.29,ENE,74,2.0,4.0,72,0.00,,---,0.00,VWS V14.01,2013-12-19 16:10:00,
2013-12-19 11:15:00,67.5,58.2,30.29,East,88,3.0,4.0,72,0.00,,---,0.00,VWS V14.01,2013-12-19 16:15:00,
2013-12-19 11:20:00,67.9,58.2,30.29,SE,127,0.0,1.0,71,0.00,,---,0.00,VWS V14.01,2013-12-19 16:20:00,
2013-12-19 11:25:00,68.3,58.2,30.29,East,79,0.0,3.0,70,0.00,,---,0.00,VWS V14.01,2013-12-19 16:25:00,
2013-12-19 11:30:00,69.2,59.0,30.28,ESE,117,0.0,2.0,70,0.00,,---,0.00,VWS V14.01,2013-12-19 16:30:00,
2013-12-19 11:35:00,70.0,59.0,30.28,ENE,75,2.0,2.0,68,0.00,,---,0.00,VWS V14.01,2013-12-19 16:35:00,
2013-12-19 11:40:00,70.1,58.2,30.28,East,91,2.0,2.0,66,0.00,,---,0.00,VWS V14.01,2013-12-19 16:40:00,
2013-12-19 11:45:00,70.1,59.1,30.28,ESE,110,1.0,4.0,68,0.00,,---,0.00,VWS V14.01,2013-12-19 16:45:00,
2013-12-19 11:50:00,70.5,58.6,30.27,East,101,1.0,3.0,66,0.00,,---,0.00,VWS V14.01,2013-12-19 16:50:00,
2013-12-19 11:55:00,70.5,58.2,30.27,SE,146,2.0,4.0,65,0.00,,---,0.00,VWS V14.01,2013-12-19 16:55:00,
2013-12-19 12:00:00,70.7,58.8,30.27,East,80,3.0,4.0,66,0.00,,---,0.00,VWS V14.01,2013-12-19 17:00:00,
2013-12-19 12:05:00,71.0,58.7,30.26,SE,130,2.0,6.0,65,0.00,,---,0.00,VWS V14.01,2013-12-19 17:05:00,
2013-12-19 12:10:00,71.0,57.8,30.26,East,92,0.0,2.0,63,0.00,,---,0.00,VWS V14.01,2013-12-19 17:10:00,
2013-12-19 12:16:00,71.6,58.3,30.26,SE,130,1.0,4.0,63,0.00,,---,0.00,VWS V14.01,2013-12-19 17:16:00,
2013-12-19 12:20:00,71.5,57.8,30.26,SSE,161,2.0,4.0,62,0.00,,---,0.00,VWS V14.01,2013-12-19 17:20:00,
2013-12-19 12:21:00,71.4,57.3,30.26,ENE,58,2.0,3.0,61,0.00,,---,0.00,VWS V14.01,2013-12-19 17:21:00,
2013-12-19 12:26:00,71.4,57.3,30.25,East,82,1.0,3.0,61,0.00,,---,0.00,VWS V14.01,2013-12-19 17:26:00,
2013-12-19 12:30:00,71.4,56.8,30.25,SSW,211,2.0,7.0,60,0.00,,---,0.00,VWS V14.01,2013-12-19 17:30:00,
2013-12-19 12:31:00,71.4,56.8,30.25,East,79,3.0,5.0,60,0.00,,---,0.00,VWS V14.01,2013-12-19 17:31:00,
2013-12-19 12:36:00,71.2,57.1,30.25,SE,127,1.0,6.0,61,0.00,,---,0.00,VWS V14.01,2013-12-19 17:36:00,
2013-12-19 12:40:00,71.4,57.7,30.24,East,79,1.0,6.0,62,0.00,,---,0.00,VWS V14.01,2013-12-19 17:40:00,
2013-12-19 12:41:00,71.5,56.9,30.25,East,98,3.0,3.0,60,0.00,,---,0.00,VWS V14.01,2013-12-19 17:41:00,
2013-12-19 12:46:00,72.0,56.4,30.24,SE,140,0.0,5.0,58,0.00,,---,0.00,VWS V14.01,2013-12-19 17:46:00,
2013-12-19 12:50:00,72.3,57.2,30.24,SSE,164,0.0,5.0,59,0.00,,---,0.00,VWS V14.01,2013-12-19 17:50:00,
2013-12-19 12:51:00,72.4,57.3,30.24,ESE,109,1.0,2.0,59,0.00,,---,0.00,VWS V14.01,2013-12-19 17:51:00,
2013-12-19 12:56:00,72.3,56.7,30.24,ESE,113,2.0,4.0,58,0.00,,---,0.00,VWS V14.01,2013-12-19 17:56:00,
2013-12-19 13:00:00,72.4,55.8,30.23,East,80,0.0,4.0,56,0.00,,---,0.00,VWS V14.01,2013-12-19 18:00:00,
2013-12-19 13:01:00,72.5,55.9,30.23,WSW,248,0.0,2.0,56,0.00,,---,0.00,VWS V14.01,2013-12-19 18:01:00,
2013-12-19 13:06:00,72.3,54.2,30.23,East,91,0.0,4.0,53,0.00,,---,0.00,VWS V14.01,2013-12-19 18:06:00,
2013-12-19 13:10:00,72.2,55.2,30.23,ESE,114,0.0,4.0,55,0.00,,---,0.00,VWS V14.01,2013-12-19 18:10:00,
2013-12-19 13:11:00,72.3,54.2,30.23,East,96,0.0,1.0,53,0.00,,---,0.00,VWS V14.01,2013-12-19 18:11:00,
2013-12-19 13:16:00,72.4,53.3,30.23,SSE,152,0.0,5.0,51,0.00,,---,0.00,VWS V14.01,2013-12-19 18:16:00,
2013-12-19 13:20:00,72.4,54.8,30.23,ESE,105,2.0,5.0,54,0.00,,---,0.00,VWS V14.01,2013-12-19 18:20:00,
2013-12-19 13:21:00,72.4,54.3,30.22,East,98,1.0,2.0,53,0.00,,---,0.00,VWS V14.01,2013-12-19 18:21:00,
2013-12-19 13:26:00,72.5,53.9,30.22,South,169,1.0,5.0,52,0.00,,---,0.00,VWS V14.01,2013-12-19 18:26:00,
2013-12-19 13:30:00,72.7,55.1,30.22,ENE,62,3.0,5.0,54,0.00,,---,0.00,VWS V14.01,2013-12-19 18:30:00,
2013-12-19 13:32:00,72.7,53.5,30.22,East,83,2.0,4.0,51,0.00,,---,0.00,VWS V14.01,2013-12-19 18:32:00,
2013-12-19 13:37:00,73.0,54.9,30.22,SSE,147,0.0,4.0,53,0.00,,---,0.00,VWS V14.01,2013-12-19 18:37:00,
2013-12-19 13:40:00,73.2,54.5,30.22,ESE,104,1.0,4.0,52,0.00,,---,0.00,VWS V14.01,2013-12-19 18:40:00,
2013-12-19 13:42:00,73.2,55.6,30.21,East,99,1.0,4.0,54,0.00,,---,0.00,VWS V14.01,2013-12-19 18:42:00,
2013-12-19 13:47:00,73.0,55.4,30.21,East,95,1.0,4.0,54,0.00,,---,0.00,VWS V14.01,2013-12-19 18:47:00,
2013-12-19 13:50:00,72.9,53.7,30.21,East,94,2.0,5.0,51,0.00,,---,0.00,VWS V14.01,2013-12-19 18:50:00,
2013-12-19 13:52:00,72.7,52.5,30.21,ESE,108,1.0,3.0,49,0.00,,---,0.00,VWS V14.01,2013-12-19 18:52:00,
2013-12-19 13:57:00,72.9,53.2,30.21,ESE,112,3.0,4.0,50,0.00,,---,0.00,VWS V14.01,2013-12-19 18:57:00,
2013-12-19 14:00:00,73.0,53.8,30.21,ESE,120,0.0,4.0,51,0.00,,---,0.00,VWS V14.01,2013-12-19 19:00:00,
2013-12-19 14:02:00,73.1,54.5,30.20,ESE,107,0.0,2.0,52,0.00,,---,0.00,VWS V14.01,2013-12-19 19:02:00,
2013-12-19 14:07:00,73.3,54.1,30.20,South,177,0.0,3.0,51,0.00,,---,0.00,VWS V14.01,2013-12-19 19:07:00,
2013-12-19 14:10:00,73.5,55.8,30.21,ENE,74,1.0,3.0,54,0.00,,---,0.00,VWS V14.01,2013-12-19 19:10:00,
2013-12-19 14:12:00,73.4,55.8,30.20,East,91,0.0,3.0,54,0.00,,---,0.00,VWS V14.01,2013-12-19 19:12:00,
2013-12-19 14:17:00,73.3,55.7,30.20,SSE,150,0.0,3.0,54,0.00,,---,0.00,VWS V14.01,2013-12-19 19:17:00,
2013-12-19 14:20:00,73.2,56.1,30.20,ESE,108,1.0,3.0,55,0.00,,---,0.00,VWS V14.01,2013-12-19 19:20:00,
2013-12-19 14:22:00,73.3,56.7,30.20,East,79,2.0,2.0,56,0.00,,---,0.00,VWS V14.01,2013-12-19 19:22:00,
2013-12-19 14:27:00,73.1,55.5,30.20,East,95,1.0,4.0,54,0.00,,---,0.00,VWS V14.01,2013-12-19 19:27:00,
2013-12-19 14:30:00,73.0,55.4,30.20,ESE,123,0.0,4.0,54,0.00,,---,0.00,VWS V14.01,2013-12-19 19:30:00,
2013-12-19 14:32:00,73.0,56.4,30.20,SSE,155,2.0,2.0,56,0.00,,---,0.00,VWS V14.01,2013-12-19 19:32:00,
2013-12-19 14:37:00,72.9,54.8,30.20,ESE,105,2.0,3.0,53,0.00,,---,0.00,VWS V14.01,2013-12-19 19:37:00,
2013-12-19 14:40:00,72.7,55.1,30.20,ESE,109,0.0,3.0,54,0.00,,---,0.00,VWS V14.01,2013-12-19 19:40:00,
2013-12-19 14:42:00,72.7,55.1,30.20,East,91,1.0,1.0,54,0.00,,---,0.00,VWS V14.01,2013-12-19 19:42:00,
2013-12-19 14:47:00,73.0,54.9,30.20,ESE,120,0.0,3.0,53,0.00,,---,0.00,VWS V14.01,2013-12-19 19:47:00,
2013-12-19 14:50:00,72.9,54.8,30.20,East,97,1.0,3.0,53,0.00,,---,0.00,VWS V14.01,2013-12-19 19:50:00,
2013-12-19 14:52:00,72.8,54.7,30.20,SE,146,0.0,2.0,53,0.00,,---,0.00,VWS V14.01,2013-12-19 19:52:00,
2013-12-19 14:57:00,72.9,54.8,30.20,East,83,0.0,2.0,53,0.00,,---,0.00,VWS V14.01,2013-12-19 19:57:00,
2013-12-19 15:00:00,72.8,54.2,30.20,SSE,162,0.0,3.0,52,0.00,,---,0.00,VWS V14.01,2013-12-19 20:00:00,
2013-12-19 15:02:00,72.7,54.1,30.20,East,87,0.0,4.0,52,0.00,,---,0.00,VWS V14.01,2013-12-19 20:02:00,
2013-12-19 15:07:00,72.5,54.4,30.19,ESE,104,0.0,5.0,53,0.00,,---,0.00,VWS V14.01,2013-12-19 20:07:00,
2013-12-19 15:10:00,72.5,53.9,30.19,ESE,118,0.0,5.0,52,0.00,,---,0.00,VWS V14.01,2013-12-19 20:10:00,
2013-12-19 15:12:00,72.5,54.4,30.19,SSW,197,0.0,2.0,53,0.00,,---,0.00,VWS V14.01,2013-12-19 20:12:00,
2013-12-19 15:17:00,72.4,54.3,30.19,ESE,116,0.0,2.0,53,0.00,,---,0.00,VWS V14.01,2013-12-19 20:17:00,
2013-12-19 15:20:00,72.3,54.2,30.19,ESE,116,0.0,2.0,53,0.00,,---,0.00,VWS V14.01,2013-12-19 20:20:00,
2013-12-19 15:22:00,72.2,54.1,30.19,East,85,1.0,2.0,53,0.00,,---,0.00,VWS V14.01,2013-12-19 20:22:00,
2013-12-19 15:27:00,72.2,54.1,30.19,ESE,105,0.0,2.0,53,0.00,,---,0.00,VWS V14.01,2013-12-19 20:27:00,
2013-12-19 15:30:00,72.3,54.7,30.19,East,83,0.0,2.0,54,0.00,,---,0.00,VWS V14.01,2013-12-19 20:30:00,
2013-12-19 15:32:00,72.2,54.7,30.19,East,91,0.0,2.0,54,0.00,,---,0.00,VWS V14.01,2013-12-19 20:32:00,
2013-12-19 15:37:00,72.2,54.7,30.19,ESE,102,0.0,2.0,54,0.00,,---,0.00,VWS V14.01,2013-12-19 20:37:00,
2013-12-19 15:40:00,72.2,54.1,30.19,East,81,1.0,5.0,53,0.00,,---,0.00,VWS V14.01,2013-12-19 20:40:00,
2013-12-19 15:42:00,72.2,54.1,30.19,East,82,0.0,2.0,53,0.00,,---,0.00,VWS V14.01,2013-12-19 20:42:00,
2013-12-19 15:47:00,72.0,54.0,30.19,East,85,0.0,2.0,53,0.00,,---,0.00,VWS V14.01,2013-12-19 20:47:00,
2013-12-19 15:50:00,72.0,54.0,30.19,East,85,0.0,2.0,53,0.00,,---,0.00,VWS V14.01,2013-12-19 20:50:00,
2013-12-19 15:52:00,72.0,54.5,30.19,East,98,0.0,1.0,54,0.00,,---,0.00,VWS V14.01,2013-12-19 20:52:00,
2013-12-19 15:57:00,71.9,53.3,30.19,East,90,1.0,5.0,52,0.00,,---,0.00,VWS V14.01,2013-12-19 20:57:00,
2013-12-19 16:00:00,71.9,53.9,30.19,East,89,0.0,5.0,53,0.00,,---,0.00,VWS V14.01,2013-12-19 21:00:00,
2013-12-19 16:03:00,71.8,53.2,30.19,SSE,152,0.0,1.0,52,0.00,,---,0.00,VWS V14.01,2013-12-19 21:03:00,
2013-12-19 16:08:00,71.8,53.8,30.19,East,99,0.0,1.0,53,0.00,,---,0.00,VWS V14.01,2013-12-19 21:08:00,
2013-12-19 16:10:00,71.7,53.7,30.19,East,99,0.0,1.0,53,0.00,,---,0.00,VWS V14.01,2013-12-19 21:10:00,
2013-12-19 16:13:00,71.7,53.7,30.18,East,101,0.0,3.0,53,0.00,,---,0.00,VWS V14.01,2013-12-19 21:13:00,
2013-12-19 16:18:00,71.7,53.7,30.18,East,80,1.0,3.0,53,0.00,,---,0.00,VWS V14.01,2013-12-19 21:18:00,
2013-12-19 16:20:00,71.7,53.7,30.18,ESE,102,0.0,3.0,53,0.00,,---,0.00,VWS V14.01,2013-12-19 21:20:00,
2013-12-19 16:23:00,71.6,53.6,30.18,ENE,76,1.0,3.0,53,0.00,,---,0.00,VWS V14.01,2013-12-19 21:23:00,
2013-12-19 16:28:00,71.6,53.6,30.19,East,79,0.0,3.0,53,0.00,,---,0.00,VWS V14.01,2013-12-19 21:28:00,
2013-12-19 16:30:00,71.5,54.0,30.18,East,79,0.0,3.0,54,0.00,,---,0.00,VWS V14.01,2013-12-19 21:30:00,
2013-12-19 16:33:00,71.4,53.9,30.18,East,79,0.0,1.0,54,0.00,,---,0.00,VWS V14.01,2013-12-19 21:33:00,
2013-12-19 16:38:00,71.1,53.6,30.19,SE,130,0.0,1.0,54,0.00,,---,0.00,VWS V14.01,2013-12-19 21:38:00,
2013-12-19 16:40:00,71.1,53.6,30.19,SE,126,0.0,1.0,54,0.00,,---,0.00,VWS V14.01,2013-12-19 21:40:00,
2013-12-19 16:43:00,71.0,53.5,30.19,East,89,0.0,0.0,54,0.00,,---,0.00,VWS V14.01,2013-12-19 21:43:00,
2013-12-19 16:48:00,70.8,53.8,30.19,East,89,0.0,0.0,55,0.00,,---,0.00,VWS V14.01,2013-12-19 21:48:00,
2013-12-19 16:50:00,70.7,53.8,30.19,East,89,0.0,0.0,55,0.00,,---,0.00,VWS V14.01,2013-12-19 21:50:00,
2013-12-19 16:53:00,70.5,54.1,30.19,East,89,0.0,0.0,56,0.00,,---,0.00,VWS V14.01,2013-12-19 21:53:00,
2013-12-19 16:58:00,70.3,53.9,30.19,East,89,0.0,0.0,56,0.00,,---,0.00,VWS V14.01,2013-12-19 21:58:00,
2013-12-19 17:00:00,70.2,53.8,30.19,East,89,0.0,0.0,56,0.00,,---,0.00,VWS V14.01,2013-12-19 22:00:00,
2013-12-19 17:03:00,70.0,54.1,30.19,East,89,0.0,0.0,57,0.00,,---,0.00,VWS V14.01,2013-12-19 22:03:00,
2013-12-19 17:08:00,69.5,53.6,30.19,East,89,0.0,0.0,57,0.00,,---,0.00,VWS V14.01,2013-12-19 22:08:00,
2013-12-19 17:10:00,69.3,53.4,30.19,East,89,0.0,0.0,57,0.00,,---,0.00,VWS V14.01,2013-12-19 22:10:00,
2013-12-19 17:13:00,69.0,53.6,30.19,East,89,0.0,0.0,58,0.00,,---,0.00,VWS V14.01,2013-12-19 22:13:00,
2013-12-19 17:18:00,68.3,53.4,30.19,East,89,0.0,0.0,59,0.00,,---,0.00,VWS V14.01,2013-12-19 22:18:00,
2013-12-19 17:20:00,68.1,53.7,30.19,East,89,0.0,0.0,60,0.00,,---,0.00,VWS V14.01,2013-12-19 22:20:00,
2013-12-19 17:23:00,67.6,54.1,30.19,East,89,0.0,0.0,62,0.00,,---,0.00,VWS V14.01,2013-12-19 22:23:00,
2013-12-19 17:28:00,67.0,54.4,30.20,East,89,0.0,0.0,64,0.00,,---,0.00,VWS V14.01,2013-12-19 22:28:00,
2013-12-19 17:30:00,66.8,54.7,30.20,East,89,0.0,0.0,65,0.00,,---,0.00,VWS V14.01,2013-12-19 22:30:00,
2013-12-19 17:33:00,66.3,54.6,30.20,East,89,0.0,0.0,66,0.00,,---,0.00,VWS V14.01,2013-12-19 22:33:00,
2013-12-19 17:38:00,65.6,54.4,30.20,East,89,0.0,0.0,67,0.00,,---,0.00,VWS V14.01,2013-12-19 22:38:00,
2013-12-19 17:40:00,65.5,54.3,30.20,East,89,0.0,0.0,67,0.00,,---,0.00,VWS V14.01,2013-12-19 22:40:00,
2013-12-19 17:43:00,65.0,53.8,30.20,East,89,0.0,0.0,67,0.00,,---,0.00,VWS V14.01,2013-12-19 22:43:00,
2013-12-19 17:48:00,64.3,53.5,30.19,East,89,0.0,0.0,68,0.00,,---,0.00,VWS V14.01,2013-12-19 22:48:00,
2013-12-19 17:50:00,64.1,53.3,30.19,East,89,0.0,0.0,68,0.00,,---,0.00,VWS V14.01,2013-12-19 22:50:00,
2013-12-19 17:53:00,63.5,53.2,30.19,East,89,0.0,0.0,69,0.00,,---,0.00,VWS V14.01,2013-12-19 22:53:00,
2013-12-19 17:58:00,62.9,53.4,30.20,East,89,0.0,0.0,71,0.00,,---,0.00,VWS V14.01,2013-12-19 22:58:00,
2013-12-19 18:00:00,62.8,53.7,30.20,East,89,0.0,0.0,72,0.00,,---,0.00,VWS V14.01,2013-12-19 23:00:00,
2013-12-19 18:03:00,62.7,53.9,30.19,East,89,0.0,0.0,73,0.00,,---,0.00,VWS V14.01,2013-12-19 23:03:00,
2013-12-19 18:08:00,62.5,54.1,30.19,East,89,0.0,0.0,74,0.00,,---,0.00,VWS V14.01,2013-12-19 23:08:00,
2013-12-19 18:10:00,62.5,54.1,30.20,East,89,0.0,0.0,74,0.00,,---,0.00,VWS V14.01,2013-12-19 23:10:00,
2013-12-19 18:13:00,62.5,54.1,30.20,East,89,0.0,0.0,74,0.00,,---,0.00,VWS V14.01,2013-12-19 23:13:00,
2013-12-19 18:18:00,62.3,53.9,30.20,East,89,0.0,0.0,74,0.00,,---,0.00,VWS V14.01,2013-12-19 23:18:00,
2013-12-19 18:20:00,62.2,53.8,30.20,East,89,0.0,0.0,74,0.00,,---,0.00,VWS V14.01,2013-12-19 23:20:00,
2013-12-19 18:23:00,62.0,54.0,30.20,East,89,0.0,0.0,75,0.00,,---,0.00,VWS V14.01,2013-12-19 23:23:00,
2013-12-19 18:28:00,61.8,54.2,30.19,East,89,0.0,0.0,76,0.00,,---,0.00,VWS V14.01,2013-12-19 23:28:00,
2013-12-19 18:30:00,61.8,54.2,30.19,East,89,0.0,0.0,76,0.00,,---,0.00,VWS V14.01,2013-12-19 23:30:00,
2013-12-19 18:34:00,61.6,54.3,30.19,East,89,0.0,0.0,77,0.00,,---,0.00,VWS V14.01,2013-12-19 23:34:00,
2013-12-19 18:39:00,61.3,54.4,30.19,East,89,0.0,0.0,78,0.00,,---,0.00,VWS V14.01,2013-12-19 23:39:00,
2013-12-19 18:40:00,61.3,54.4,30.19,East,89,0.0,0.0,78,0.00,,---,0.00,VWS V14.01,2013-12-19 23:40:00,
2013-12-19 18:44:00,61.0,54.1,30.20,East,89,0.0,0.0,78,0.00,,---,0.00,VWS V14.01,2013-12-19 23:44:00,
2013-12-19 18:49:00,60.5,54.0,30.19,East,89,0.0,0.0,79,0.00,,---,0.00,VWS V14.01,2013-12-19 23:49:00,
2013-12-19 18:50:00,60.5,54.0,30.19,East,89,0.0,0.0,79,0.00,,---,0.00,VWS V14.01,2013-12-19 23:50:00,
2013-12-19 18:54:00,60.0,53.5,30.20,East,89,0.0,0.0,79,0.00,,---,0.00,VWS V14.01,2013-12-19 23:54:00,
2013-12-19 18:59:00,59.5,53.7,30.20,East,89,0.0,0.0,81,0.00,,---,0.00,VWS V14.01,2013-12-19 23:59:00,
2013-12-19 19:00:00,59.5,53.7,30.20,East,89,0.0,0.0,81,0.00,,---,0.00,VWS V14.01,2013-12-20 00:00:00,
2013-12-19 19:04:00,59.1,53.3,30.20,East,89,0.0,0.0,81,0.00,,---,0.00,VWS V14.01,2013-12-20 00:04:00,
2013-12-19 19:09:00,58.9,53.4,30.20,East,89,0.0,0.0,82,0.00,,---,0.00,VWS V14.01,2013-12-20 00:09:00,
2013-12-19 19:10:00,58.8,53.3,30.20,East,89,0.0,0.0,82,0.00,,---,0.00,VWS V14.01,2013-12-20 00:10:00,
2013-12-19 19:14:00,58.6,53.1,30.21,East,89,0.0,0.0,82,0.00,,---,0.00,VWS V14.01,2013-12-20 00:14:00,
2013-12-19 19:19:00,58.3,53.2,30.21,East,89,0.0,0.0,83,0.00,,---,0.00,VWS V14.01,2013-12-20 00:19:00,
2013-12-19 19:20:00,58.3,53.2,30.21,East,89,0.0,0.0,83,0.00,,---,0.00,VWS V14.01,2013-12-20 00:20:00,
2013-12-19 19:24:00,58.2,53.1,30.21,East,89,0.0,0.0,83,0.00,,---,0.00,VWS V14.01,2013-12-20 00:24:00,
2013-12-19 19:29:00,58.1,53.0,30.21,East,89,0.0,0.0,83,0.00,,---,0.00,VWS V14.01,2013-12-20 00:29:00,
2013-12-19 19:30:00,58.1,53.0,30.21,East,89,0.0,0.0,83,0.00,,---,0.00,VWS V14.01,2013-12-20 00:30:00,
2013-12-19 19:34:00,58.0,52.9,30.21,East,89,0.0,0.0,83,0.00,,---,0.00,VWS V14.01,2013-12-20 00:34:00,
2013-12-19 19:39:00,57.8,52.7,30.21,East,89,0.0,0.0,83,0.00,,---,0.00,VWS V14.01,2013-12-20 00:39:00,
2013-12-19 19:40:00,57.7,52.6,30.21,East,89,0.0,0.0,83,0.00,,---,0.00,VWS V14.01,2013-12-20 00:40:00,
2013-12-19 19:44:00,57.5,52.4,30.21,East,89,0.0,0.0,83,0.00,,---,0.00,VWS V14.01,2013-12-20 00:44:00,
2013-12-19 19:49:00,57.1,52.3,30.21,East,89,0.0,0.0,84,0.00,,---,0.00,VWS V14.01,2013-12-20 00:49:00,
2013-12-19 19:50:00,57.1,52.3,30.21,East,89,0.0,0.0,84,0.00,,---,0.00,VWS V14.01,2013-12-20 00:50:00,
2013-12-19 19:54:00,57.2,52.7,30.21,East,89,0.0,0.0,85,0.00,,---,0.00,VWS V14.01,2013-12-20 00:54:00,
2013-12-19 19:59:00,57.3,52.5,30.22,East,89,0.0,0.0,84,0.00,,---,0.00,VWS V14.01,2013-12-20 00:59:00,
2013-12-19 20:00:00,57.3,52.5,30.22,East,89,0.0,0.0,84,0.00,,---,0.00,VWS V14.01,2013-12-20 01:00:00,
2013-12-19 20:04:00,57.3,52.8,30.21,East,89,0.0,0.0,85,0.00,,---,0.00,VWS V14.01,2013-12-20 01:04:00,
2013-12-19 20:09:00,57.4,52.9,30.21,East,89,0.0,0.0,85,0.00,,---,0.00,VWS V14.01,2013-12-20 01:09:00,
2013-12-19 20:10:00,57.4,52.9,30.21,East,89,0.0,0.0,85,0.00,,---,0.00,VWS V14.01,2013-12-20 01:10:00,
2013-12-19 20:14:00,57.6,53.1,30.21,East,89,0.0,0.0,85,0.00,,---,0.00,VWS V14.01,2013-12-20 01:14:00,
2013-12-19 20:19:00,57.8,53.0,30.21,East,89,0.0,0.0,84,0.00,,---,0.00,VWS V14.01,2013-12-20 01:19:00,
2013-12-19 20:20:00,57.8,53.0,30.21,East,89,0.0,0.0,84,0.00,,---,0.00,VWS V14.01,2013-12-20 01:20:00,
2013-12-19 20:24:00,57.8,53.3,30.21,East,89,0.0,0.0,85,0.00,,---,0.00,VWS V14.01,2013-12-20 01:24:00,
2013-12-19 20:29:00,57.9,53.4,30.22,East,89,0.0,0.0,85,0.00,,---,0.00,VWS V14.01,2013-12-20 01:29:00,
2013-12-19 20:30:00,57.9,53.4,30.22,East,89,0.0,0.0,85,0.00,,---,0.00,VWS V14.01,2013-12-20 01:30:00,
2013-12-19 20:34:00,58.1,53.6,30.22,East,89,0.0,0.0,85,0.00,,---,0.00,VWS V14.01,2013-12-20 01:34:00,
2013-12-19 20:39:00,58.4,53.9,30.22,ENE,76,0.0,0.0,85,0.00,,---,0.00,VWS V14.01,2013-12-20 01:39:00,
2013-12-19 20:40:00,58.5,54.0,30.22,ENE,77,0.0,0.0,85,0.00,,---,0.00,VWS V14.01,2013-12-20 01:40:00,
2013-12-19 20:44:00,58.9,54.1,30.22,ENE,76,0.0,0.0,84,0.00,,---,0.00,VWS V14.01,2013-12-20 01:44:00,
2013-12-19 20:49:00,59.0,54.2,30.22,ENE,77,0.0,0.0,84,0.00,,---,0.00,VWS V14.01,2013-12-20 01:49:00,
2013-12-19 20:50:00,59.0,54.2,30.22,ENE,76,0.0,0.0,84,0.00,,---,0.00,VWS V14.01,2013-12-20 01:50:00,
2013-12-19 20:54:00,59.1,54.3,30.22,ENE,76,1.0,1.0,84,0.00,,---,0.00,VWS V14.01,2013-12-20 01:54:00,
2013-12-19 20:59:00,59.1,54.3,30.22,ENE,67,0.0,1.0,84,0.00,,---,0.00,VWS V14.01,2013-12-20 01:59:00,
2013-12-19 21:00:00,59.1,54.3,30.22,ENE,67,0.0,1.0,84,0.00,,---,0.00,VWS V14.01,2013-12-20 02:00:00,
2013-12-19 21:05:00,59.1,54.3,30.22,East,89,0.0,1.0,84,0.00,,---,0.00,VWS V14.01,2013-12-20 02:05:00,
2013-12-19 21:10:00,59.1,54.3,30.22,East,87,0.0,1.0,84,0.00,,---,0.00,VWS V14.01,2013-12-20 02:10:00,
2013-12-19 21:15:00,59.1,54.3,30.22,East,85,0.0,1.0,84,0.00,,---,0.00,VWS V14.01,2013-12-20 02:15:00,
2013-12-19 21:20:00,59.1,54.3,30.22,East,85,1.0,1.0,84,0.00,,---,0.00,VWS V14.01,2013-12-20 02:20:00,
2013-12-19 21:25:00,59.1,54.3,30.22,ENE,64,0.0,2.0,84,0.00,,---,0.00,VWS V14.01,2013-12-20 02:25:00,
2013-12-19 21:30:00,59.0,54.2,30.22,ENE,69,1.0,1.0,84,0.00,,---,0.00,VWS V14.01,2013-12-20 02:30:00,
2013-12-19 21:35:00,59.0,54.5,30.22,ENE,68,1.0,2.0,85,0.00,,---,0.00,VWS V14.01,2013-12-20 02:35:00,
2013-12-19 21:40:00,59.0,54.2,30.22,ENE,76,0.0,0.0,84,0.00,,---,0.00,VWS V14.01,2013-12-20 02:40:00,
2013-12-19 21:45:00,59.0,54.5,30.22,East,82,1.0,2.0,85,0.00,,---,0.00,VWS V14.01,2013-12-20 02:45:00,
2013-12-19 21:50:00,59.0,54.5,30.22,East,82,0.0,0.0,85,0.00,,---,0.00,VWS V14.01,2013-12-20 02:50:00,
2013-12-19 21:55:00,58.8,54.3,30.22,ENE,76,0.0,0.0,85,0.00,,---,0.00,VWS V14.01,2013-12-20 02:55:00,
2013-12-19 22:00:00,58.6,54.1,30.22,East,79,0.0,0.0,85,0.00,,---,0.00,VWS V14.01,2013-12-20 03:00:00,
2013-12-19 22:05:00,58.5,54.0,30.22,East,79,0.0,0.0,85,0.00,,---,0.00,VWS V14.01,2013-12-20 03:05:00,
2013-12-19 22:10:00,58.3,54.1,30.23,East,79,0.0,0.0,86,0.00,,---,0.00,VWS V14.01,2013-12-20 03:10:00,
2013-12-19 22:15:00,58.0,53.8,30.22,East,79,0.0,0.0,86,0.00,,---,0.00,VWS V14.01,2013-12-20 03:15:00,
2013-12-19 22:20:00,57.6,53.5,30.22,East,79,0.0,0.0,86,0.00,,---,0.00,VWS V14.01,2013-12-20 03:20:00,
2013-12-19 22:25:00,57.2,53.1,30.22,East,79,0.0,0.0,86,0.00,,---,0.00,VWS V14.01,2013-12-20 03:25:00,
2013-12-19 22:30:00,57.0,53.2,30.22,East,79,0.0,0.0,87,0.00,,---,0.00,VWS V14.01,2013-12-20 03:30:00,
2013-12-19 22:35:00,56.5,52.7,30.23,East,79,0.0,0.0,87,0.00,,---,0.00,VWS V14.01,2013-12-20 03:35:00,
2013-12-19 22:40:00,56.2,52.4,30.23,East,79,0.0,0.0,87,0.00,,---,0.00,VWS V14.01,2013-12-20 03:40:00,
2013-12-19 22:46:00,55.7,51.9,30.22,East,79,0.0,0.0,87,0.00,,---,0.00,VWS V14.01,2013-12-20 03:46:00,
2013-12-19 22:50:00,55.3,51.5,30.22,East,79,0.0,0.0,87,0.00,,---,0.00,VWS V14.01,2013-12-20 03:50:00,
2013-12-19 22:51:00,55.2,51.4,30.22,East,79,0.0,0.0,87,0.00,,---,0.00,VWS V14.01,2013-12-20 03:51:00,
2013-12-19 22:56:00,54.8,51.0,30.22,East,79,0.0,0.0,87,0.00,,---,0.00,VWS V14.01,2013-12-20 03:56:00,
2013-12-19 23:00:00,54.4,50.6,30.22,East,79,0.0,0.0,87,0.00,,---,0.00,VWS V14.01,2013-12-20 04:00:00,
2013-12-19 23:01:00,54.4,50.9,30.22,East,79,0.0,0.0,88,0.00,,---,0.00,VWS V14.01,2013-12-20 04:01:00,
2013-12-19 23:06:00,54.7,51.2,30.22,East,79,0.0,0.0,88,0.00,,---,0.00,VWS V14.01,2013-12-20 04:06:00,
2013-12-19 23:10:00,54.8,51.3,30.22,East,79,0.0,0.0,88,0.00,,---,0.00,VWS V14.01,2013-12-20 04:10:00,
2013-12-19 23:11:00,54.8,51.3,30.22,East,79,0.0,0.0,88,0.00,,---,0.00,VWS V14.01,2013-12-20 04:11:00,
2013-12-19 23:16:00,54.8,51.3,30.22,East,79,0.0,0.0,88,0.00,,---,0.00,VWS V14.01,2013-12-20 04:16:00,
2013-12-19 23:20:00,54.7,51.2,30.21,East,79,0.0,0.0,88,0.00,,---,0.00,VWS V14.01,2013-12-20 04:20:00,
2013-12-19 23:21:00,54.7,51.2,30.21,East,79,0.0,0.0,88,0.00,,---,0.00,VWS V14.01,2013-12-20 04:21:00,
2013-12-19 23:26:00,54.6,51.1,30.21,East,79,0.0,0.0,88,0.00,,---,0.00,VWS V14.01,2013-12-20 04:26:00,
2013-12-19 23:30:00,54.5,51.0,30.21,East,79,0.0,0.0,88,0.00,,---,0.00,VWS V14.01,2013-12-20 04:30:00,
2013-12-19 23:31:00,54.5,51.0,30.21,East,79,0.0,0.0,88,0.00,,---,0.00,VWS V14.01,2013-12-20 04:31:00,
2013-12-19 23:36:00,54.6,51.1,30.21,East,79,0.0,0.0,88,0.00,,---,0.00,VWS V14.01,2013-12-20 04:36:00,
2013-12-19 23:40:00,54.7,51.2,30.20,East,79,0.0,0.0,88,0.00,,---,0.00,VWS V14.01,2013-12-20 04:40:00,
2013-12-19 23:41:00,54.7,51.2,30.20,East,79,0.0,0.0,88,0.00,,---,0.00,VWS V14.01,2013-12-20 04:41:00,
2013-12-19 23:46:00,54.8,51.3,30.20,East,79,0.0,0.0,88,0.00,,---,0.00,VWS V14.01,2013-12-20 04:46:00,
2013-12-19 23:50:00,54.9,51.4,30.20,East,79,0.0,0.0,88,0.00,,---,0.00,VWS V14.01,2013-12-20 04:50:00,
2013-12-19 23:51:00,55.0,51.5,30.20,East,79,0.0,0.0,88,0.00,,---,0.00,VWS V14.01,2013-12-20 04:51:00,
2013-12-19 23:56:00,55.1,51.6,30.20,East,79,0.0,0.0,88,0.00,,---,0.00,VWS V14.01,2013-12-20 04:56:00,